GONETS D1M 1

Satellite information

Favourite Embed

Satellite Type and Status

PAYLOADIN ORBIT

Key statistics

Satellite GONETS D1M 1 at a glance.

Uptime

7304

Days in orbit

Revolutions

≈ 12.6

Per day

Orbit

LEO

Low Earth Orbit

Inclination

82.5

Latest

Satellite identification and parameters

Extended collection of information and parameters for GONETS D1M 1.

Object identification

Identified? True

Debris? False

Object name: GONETS D1M 1

International designator: 2005-048B

Object number (NORAD): 28909

Object ID (CCSDS): 28909

Country: COMMONWEALTH OF INDEPENDENT STATES (CIS)

Current information (Y/N): Y

RCS size: LARGE

Orbital parameters

Period: 114.715 minutes

Inclination: 82.4695 deg

SMA: 7820.605 km

Apoapsis: 1448.665 km

Periapsis: 1436.275 km

RAAN: 64.8016 deg

Eccentricy: 0.00079215

Argument of periapsis: 193.7925 deg

Mean anomaly: 288.6479 deg

Mean motion: 12.55284667 rev/day

Mean motion (dot): 0.00000013 rev/day2

B* drag term: 0.000017350825 1/REarth

Two-line elements (TLE)

Creation date: Dec. 20, 2025, 3:40 a.m.

Reference frame: TEME

Reference center: EARTH

Epoch: Dec. 19, 2025, 11:53 p.m. UTC

TLE line 0: 0 GONETS D1M 1

TLE line 1: 1 28909U 05048B 25353.99540576 .00000013 00000-0 17351-4 0 9993

TLE line 2: 2 28909 82.4695 64.8016 0007921 193.7925 288.6479 12.55284667916066

Live tracking on map

Real-time ground track for satellite GONETS D1M 1.

In-orbit conjunctions

There are no conjunctions computed for GONETS D1M 1, at the moment. Check back to stay up to date, as we update our databases every day.

Go to all conjunctions

Associated space launch

Strela-3M (also known as Rodnik-S) is an improved version of the Strela-3 military communications satellites. The first one was launched on 21.12.2005 on a Kosmos-3M booster together with a Gonets-M satellite, which represents the civilian version. Later satellites were launched on Rokot-KM boosters.

GONETS D1M 1 was lifted into orbit during the mission ‘Kosmos-3M | Strela-3M 1’, on board a Kosmos-3M space rocket.

The launch took place on Dec. 21, 2005, 7:34 p.m. from 132/1 (132L).

For more information about the launch, click the button.

Launch to space Kosmos-3M | Strela-3M 1
Kosmos-3M | Strela-3M 1

Agency: N/A

Status: Launch Successful

Launch date: Dec. 21, 2005, 7:34 p.m. UTC

Rocket: Kosmos-3M

Launch pad: 132/1 (132L)

Location: Plesetsk Cosmodrome, Russian Federation

...

Latest news about this satellite

There are no fresh news available about this satellite. Check back as we update our databases every day.


Newsletter sign-up

Weekly statistics, charts and insights to help you stay on top of the space industry.